Tracking 20942 objects as of 10-Jul-2020
HD Live streaming from Space Station
objects crossing your sky now

NATO 3C

Track NATO 3C now!
NATO 3C is classified as:


NORAD ID: 11115
Int'l Code: 1978-106A
Perigee: 36,292.0 km
Apogee: 36,314.6 km
Inclination: 13.0 °
Period: 1,462.2 minutes
Semi major axis: 42674 km
RCS: 7.0899 m2 (large)
Launch date: November 19, 1978
Source: North Atlantic Treaty Organization (NATO)
Launch site: AIR FORCE EASTERN TEST RANGE (AFETR)
aabbcc
Your satellite tracking list
Your tracking list is empty




NASA's NSSDC Master Catalog

Two Line Element Set (TLE):
1 11115U 78106A   20191.39258692  .00000001  00000-0  00000+0 0  9998
2 11115  13.0044 331.8303 0002647 344.1677 190.4621  0.98481207633975
Source of the keplerian elements: AFSPC